This is the latest recevied weather packets stored in our database for station/object N0ZMJ-3. If no packets are shown the sender has not sent any weather packets the latest 10 day(s).
| Time | Temp. | Humidity | Pressure | Rain* | Wind** | Luminosity | Snow |
|---|---|---|---|---|---|---|---|
| 1777732942 | 12.22° C | 54% | 1016.5 hPa | 0 mm | - | - | - |
| 1777732524 | 12.22° C | 56% | 1016.6 hPa | 0 mm | - | - | - |
| 1777732456 | 11.67° C | 57% | 1016.5 hPa | 0 mm | - | - | - |
| 1777732107 | 11.67° C | 57% | 1016.4 hPa | 0 mm | - | - | - |
| 1777731856 | 11.11° C | 57% | 1016.5 hPa | 0 mm | - | - | - |
| 1777731684 | 11.11° C | 57% | 1016.5 hPa | 0 mm | - | - | - |
| 1777731255 | 10.56° C | 57% | 1016.5 hPa | 0 mm | - | - | - |
| 1777730846 | 10° C | 59% | 1016.5 hPa | 0 mm | - | - | - |
| 1777730655 | 10° C | 61% | 1016.6 hPa | 0 mm | - | - | - |
| 1777730423 | 10° C | 61% | 1016.6 hPa | 0 mm | - | - | - |
| 1777730055 | 9.44° C | 63% | 1016.6 hPa | 0 mm | - | - | - |
| 1777730003 | 9.44° C | 63% | 1016.6 hPa | 0 mm | - | - | - |
| 1777729582 | 8.89° C | 63% | 1016.8 hPa | 0 mm | - | - | - |
| 1777729455 | 8.89° C | 64% | 1016.7 hPa | 0 mm | - | - | - |
| 1777729163 | 8.33° C | 67% | 1016.9 hPa | 0 mm | - | - | - |
| 1777728856 | 7.78° C | 68% | 1016.8 hPa | 0 mm | - | - | - |
| 1777728743 | 7.78° C | 68% | 1016.8 hPa | 0 mm | - | - | - |
| 1777728325 | 7.78° C | 68% | 1016.9 hPa | 0 mm | - | - | - |
| 1777728255 | 7.22° C | 70% | 1017 hPa | 0 mm | - | - | - |
| 1777727903 | 6.67° C | 71% | 1017 hPa | 0 mm | - | - | - |
| 1777727654 | 6.11° C | 72% | 1017 hPa | 0 mm | - | - | - |
| 1777727481 | 6.11° C | 72% | 1017 hPa | 0 mm | - | - | - |
| 1777727056 | 5° C | 77% | 1017.3 hPa | 0 mm | - | - | - |
| 1777726644 | 4.44° C | 78% | 1017.1 hPa | 0 mm | - | - | - |
| 1777726456 | 3.89° C | 79% | 1017.1 hPa | 0 mm | - | - | - |
* Rain latest hour (hover to see other rain measurements)
** Current wind speed in m/s (hover to see current wind gust speed)